Tracking 29528 objects as of 12-Sep-2024
HD Live streaming from Space Station
objects crossing your sky now

FENGYUN 1C DEB

Track FENGYUN 1C DEB now!
10-day predictions


NORAD ID: 32243
Int'l Code: 1999-025CWR
Perigee: 699.9 km
Apogee: 1,114.5 km
Inclination: 98.3 °
Period: 103.0 minutes
Semi major axis: 7278 km
RCS: 0.0053 m2 (small)
Launch date: May 10, 1999
Source: People's Republic of China (PRC)
Launch site: Taiyaun Space Center, China (TSC)

Note: This is SATELLITE DEBRIS
Your satellite tracking list
Your tracking list is empty




NASA's NSSDC Master Catalog

Two Line Element Set (TLE):
1 32243U 99025CWR 24256.42655459  .00008519  00000-0  42454-2 0  9992
2 32243  98.3005 315.8180 0284875 336.8937  21.9624 13.98192902871947
Source of the keplerian elements: AFSPC